Regional Weather Roundup
Issued by NWS

Home | Current Version | Previous Version | Graphics & Text | Print | Product List | Glossary Off
Versions: 1 2 3 4 5 6 7 8 9 10 11 12 13 14 15 16 17 18 19 20 21 22 23 24 25 26 27 28 29 30 31 32 33 34 35 36 37 38 39 40 41 42 43 44 45 46 47 48 49 50

000
ASUS43 KDTX 221510
RWRMI
MICHIGAN HOURLY REGIONAL WEATHER ROUNDUP
NATIONAL WEATHER SERVICE DETROIT/PONTIAC MI
1100 AM EDT MON SEP 22 2014

NOTE: "FAIR" INDICATES FEW OR NO CLOUDS BELOW 12,000 FEET WITH NO
SIGNIFICANT WEATHER AND/OR OBSTRUCTION TO VISIBILITY.

MIZ047>049-052>055-059>063-066>070-074>076-081>083-221600-
SOUTHEAST LOWER MICHIGAN

CITY           SKY/WX    TMP DP  RH WIND       PRES   REMARKS
ADRIAN         MOSUNNY   54  40  59 N9        30.23S
ALMA           MOSUNNY   52  42  67 W8        30.22S
ANN ARBOR      PTSUNNY   52  39  61 N9        30.21R
BAD AXE        CLOUDY    49  41  73 NW12      30.18R
CARO           CLOUDY    51  40  66 NW12      30.19R
DETROIT CITY   PTSUNNY   54  37  52 NW8G17    30.20R
DETROIT        PTSUNNY   53  40  61 NW10G16   30.21S
FLINT          CLOUDY    52  40  63 NW9G18    30.21R
GROSSE ILE     PTSUNNY   52  39  62 N10       30.19S
HILLSDALE      SUNNY     52  41  64 NW9       30.22S
HOWELL         MOSUNNY   50  39  66 N7        30.21S

CITY           SKY/WX    TMP DP  RH WIND       PRES   REMARKS
JACKSON        PTSUNNY   53  41  63 NW8       30.23R
LAMBERTVILLE   CLOUDY    52  39  62 NW7       30.23R
LANSING        PTSUNNY   52  39  61 NW9       30.23R
LAPEER         PTSUNNY   49  39  67 NW10      30.20R
MASON          CLOUDY    50  40  67 NW9       30.23R
MONROE         PTSUNNY   52  39  62 NW12      30.20S
MT. CLEMENS    PTSUNNY   51  39  62 NW9       30.16R
PONTIAC        PTSUNNY   50  38  63 NW14      30.19R
PORT HOPE        N/A     50  39  66 NW8       30.15R
PORT HURON     CLOUDY    50  41  71 NW7       30.18R
TRI CITIES     CLOUDY    52  41  66 NW10      30.21S
TROY           CLOUDY    53  38  56 W12G17    30.20S
SAGINAW HB     CLOUDY    52  39  62 W8        30.20R
$$
MIZ043>046-050>051-056>058-064>065-071>073-077>080-221600-
SOUTHWEST LOWER MICHIGAN

CITY           SKY/WX    TMP DP  RH WIND       PRES   REMARKS
BATTLE CREEK   SUNNY     53  40  61 NW8       30.25R
BENTON HARBOR  MOSUNNY   54  43  66 VRB6      30.27R
BIG RAPIDS     MOSUNNY   51  45  78 NW12      30.22R
COLDWATER      SUNNY     53  41  62 N3        30.24S
FREMONT        FAIR      53  43  68 NW9       30.24R
HOLLAND        MOSUNNY   57  44  62 NW9       30.27R
GRAND RAPIDS   MOSUNNY   54  42  64 NW12      30.25R
IONIA          FAIR      52  41  66 NW8       30.23S
KALAMAZOO      SUNNY     54  40  59 N10       30.26R
LUDINGTON      MOSUNNY   55  47  77 NW8       30.25R
MARSHALL       MOSUNNY   51  39  63 NW3       30.24R
MOUNT PLEASANT MOSUNNY   52  40  64 NW8       30.21R
MUSKEGON       MOSUNNY   55  44  66 NW7       30.26R
SOUTH HAVEN    MOSUNNY   57  46  66 N8        30.27R
$$
MIZ016>042-221600-
NORTHERN LOWER MICHIGAN

CITY           SKY/WX    TMP DP  RH WIND       PRES   REMARKS
ALPENA         MOSUNNY   50  39  66 NW10      30.16R
BEAVER ISLAND  MOSUNNY   54  45  71 SW14      30.18R
BELLAIRE       PTSUNNY   53  43  68 W7        30.20R
CADILLAC       MOSUNNY   51  43  73 W9        30.19S
CHARLEVOIX     MOSUNNY   54  44  69 W10       30.21S
FRANKFORT      PTSUNNY   54  44  68 W6        30.22R
GAYLORD        SUNNY     50  41  71 W7        30.17R
GRAYLING       SUNNY     54  42  64 W10       30.19R
HARBOR SPRINGS MOSUNNY   53  41  64 SW9       30.17S
HOUGHTON LAKE  SUNNY     51  40  65 NW12      30.19R
MANISTEE       PTSUNNY   54  43  66 NW10      30.24R
OSCODA         PTSUNNY   50  38  64 N12       30.16R
PELLSTON       MOSUNNY   52  41  66 W9        30.17S
ROGERS CITY    PTSUNNY   50  41  71 W9G16     30.16S
TRAVERSE CITY  MOSUNNY   53  42  66 W9        30.20S
$$
MIZ007>008-015-221600-
EASTERN UPPER MICHIGAN

CITY           SKY/WX    TMP DP  RH WIND       PRES   REMARKS
KINROSS        MOSUNNY   48  39  71 W10       30.13F
MACKINAC ISLAN MOSUNNY   50  41  71 W10       30.15S
NEWBERRY       CLOUDY    44  40  83 SW7G18    30.15S
S. S. MARIE    MOSUNNY   50  39  66 W12       30.11F
MUNISING         N/A     50  42  74 S6        30.14S
$$
MIZ004>006-011>014-085-221600-
CENTRAL UPPER MICHIGAN

CITY           SKY/WX    TMP DP  RH WIND       PRES   REMARKS
MANISTIQUE     CLOUDY    47  44  88 SW3       30.17S
ESCANABA       CLOUDY    45  41  87 W6        30.18S
MENOMINEE      CLOUDY    48  43  81 W6        30.20S
SAWYER-GWINN   PTSUNNY   50  45  81 W6        30.16R
$$
MIZ001>003-009>011-084-221600-
WESTERN UPPER MICHIGAN

CITY           SKY/WX    TMP DP  RH WIND       PRES   REMARKS
IRON MOUNTAIN  CLOUDY    51  45  79 W3        30.18S
HOUGHTON       SUNNY     56  48  74 W14       30.13R
COPPER HARBOR    N/A     59  47  64 N10       30.09F
IRONWOOD       SUNNY     55  52  88 W9        30.18S
$$

ABBREVIATIONS USED IN REMARKS
   TC - TEMPERATURE IN CELSIUS
  WCI - WIND CHILL INDEX
   HX - HEAT INDEX
  VSB - VISIBILITY



USA.gov is the U.S. government's official web portal to all federal, state and local government web resources and services.